Latest Weather Observations for Davis*

IDT60801

Issued at 11:31 pm EST Saturday 9 May 2026 (issued every 10 minutes, with the page automatically refreshed every 10 minutes)

About weather observations | Map of weather stations | Latest weather observations for ANT | Other Formats
Station Details ID: 300000 Name: DAVIS Lat: -68.57 Lon: 77.97 Height: 18.0 m
Data from the previous 72 hours. | See also: Recent months at Davis*
Date/Time
EST
Temp
°C
App
Temp
°C
Dew
Point
°C
Rel
Hum
%
Delta-T
°C
Wind Press
QNH
hPa
Press
MSL
hPa
Rain since
9am
mm
Dir  Spd
km/h
Gust
km/h
Spd
kts
Gust
kts
09/11:30pm -11.7 -18.0 -16.9 65 - SE 15 19 8 10 991.8 992.1 -
09/11:00pm -11.1 -17.5 -17.9 57 - SE 15 20 8 11 991.9 992.2 -
09/10:30pm -11.2 -18.5 -18.0 57 - E 20 28 11 15 992.1 992.4 -
09/10:00pm -11.1 -17.9 -18.8 53 - SE 17 24 9 13 992.1 992.4 -
09/09:30pm -10.4 -19.3 -19.0 49 - E 28 37 15 20 992.3 992.6 -
09/09:08pm -10.2 -19.8 -19.3 47 - E 32 50 17 27 992.4 992.7 -
09/09:00pm -10.1 -19.9 -18.5 50 - E 33 46 18 25 992.3 992.6 -
09/08:30pm -10.3 -18.8 -18.7 50 - E 26 35 14 19 992.6 992.9 -
09/08:25pm -10.0 -18.9 -18.9 48 - E 28 44 15 24 992.5 992.8 -
09/08:00pm -11.8 -17.5 -19.4 53 - SSE 11 19 6 10 992.7 993.0 -
09/07:30pm -12.6 -20.0 -19.1 58 - ESE 20 26 11 14 992.8 993.1 -
09/07:00pm -15.1 -22.8 -19.0 72 - S 22 28 12 15 993.1 993.4 -
09/06:30pm -15.5 -22.9 -19.2 73 - S 20 24 11 13 993.4 993.7 -
09/06:00pm -15.8 -23.5 -19.3 74 - S 22 28 12 15 993.6 993.9 -
09/05:30pm -15.8 -23.1 -18.9 77 - S 20 28 11 15 994.2 994.6 -
09/05:00pm -15.4 -23.1 -18.8 75 - SSW 22 30 12 16 994.5 994.9 -
09/04:30pm -15.7 -22.9 -19.3 74 - S 19 26 10 14 995.0 995.4 -
09/04:00pm -15.8 -20.5 -19.0 76 - E 6 9 3 5 995.0 995.4 -
09/03:43pm -16.0 -20.9 -19.2 76 - NE 7 13 4 7 995.0 995.4 -
09/03:33pm -16.0 -22.0 -19.4 75 - NNE 13 17 7 9 995.0 995.4 -
09/03:30pm -16.0 -22.4 -19.4 75 - NNE 15 17 8 9 995.0 995.4 -
09/03:00pm -16.8 -23.3 -20.6 72 - NE 15 17 8 9 994.7 995.1 -
09/02:30pm -16.1 -22.5 -20.1 71 - NNE 15 19 8 10 994.1 994.5 -
09/02:00pm -16.0 -23.4 -20.2 70 - NNE 20 26 11 14 993.8 994.2 -
09/01:30pm -16.1 -24.6 -20.4 69 - N 26 32 14 17 993.2 993.5 -
09/01:00pm -16.6 -26.5 -21.1 68 - NNE 33 46 18 25 992.9 993.2 -
09/12:30pm -16.8 -25.7 -21.3 68 - NE 28 37 15 20 992.2 992.5 -
09/12:24pm -16.8 -25.7 -21.1 69 - NE 28 37 15 20 992.1 992.4 -
09/12:00pm -17.1 -29.5 -20.8 73 - NE 46 56 25 30 991.2 991.5 -
09/11:30am -17.1 -29.4 -20.0 78 - NE 46 56 25 30 990.6 990.9 -
09/11:00am -16.5 -28.4 -19.3 79 - NNE 44 56 24 30 990.0 990.3 -
09/10:30am -14.6 -22.6 -16.8 83 - NE 24 39 13 21 989.2 989.5 -
09/10:20am -14.4 -21.1 -16.8 82 - NNE 17 22 9 12 988.8 989.1 -
09/10:13am -14.3 -21.0 -17.0 80 - NNE 17 20 9 11 988.5 988.8 -
09/10:07am -14.2 -20.9 -16.7 81 - NNE 17 20 9 11 988.3 988.6 -
09/10:00am -14.2 -20.9 -16.9 80 - NNE 17 20 9 11 987.9 988.2 -
09/09:30am -14.0 -19.5 -16.5 81 - NE 11 17 6 9 987.0 987.3 -
09/09:00am -13.8 -19.7 -16.3 81 - NE 13 15 7 8 986.4 986.7 -
09/08:30am -14.0 -19.1 -16.4 82 - NE 9 13 5 7 985.9 986.2 -
09/08:00am -13.8 -19.7 -16.3 81 - NE 13 15 7 8 985.6 985.9 -
09/07:30am -13.9 -20.6 -16.3 82 - NNE 17 24 9 13 985.2 985.5 -
09/07:00am -14.1 -20.8 -16.6 81 - NE 17 22 9 12 984.6 984.9 -
09/06:44am -14.3 -21.4 -16.8 81 - NE 19 24 10 13 984.5 984.8 -
09/06:30am -14.4 -21.5 -16.9 81 - NE 19 24 10 13 984.2 984.5 -
09/06:00am -14.6 -21.9 -17.3 80 - NE 20 26 11 14 983.5 983.8 -
09/05:30am -14.6 -21.9 -17.3 80 - NE 20 28 11 15 983.0 983.3 -
09/05:00am -14.6 -22.3 -17.4 79 - NE 22 26 12 14 982.3 982.6 -
09/04:30am -14.3 -21.9 -17.1 79 - NE 22 26 12 14 981.6 981.9 -
09/04:00am -13.7 -20.8 -16.8 77 - NE 19 20 10 11 980.9 981.2 -
09/03:30am -13.4 -19.7 -15.8 82 - NE 15 17 8 9 980.4 980.7 -
09/03:00am -12.7 -19.3 -15.4 80 - NE 17 19 9 10 980.1 980.4 -
09/02:30am -11.6 -17.4 -13.9 83 - NE 13 17 7 9 979.6 979.9 -
09/02:00am -10.5 -17.0 -13.4 79 - NE 17 22 9 12 979.2 979.5 -
09/01:30am -9.7 -16.8 -13.0 77 - NE 20 26 11 14 978.6 978.9 -
09/01:00am -9.4 -17.2 -12.7 77 - ENE 24 30 13 16 978.3 978.6 -
09/12:30am -8.9 -17.5 -12.7 74 - NE 28 37 15 20 978.2 978.5 -
09/12:00am -9.0 -17.2 -12.9 73 - NE 26 35 14 19 977.9 978.2 -
 
Date/Time
EST
Temp
°C
App
Temp
°C
Dew
Point
°C
Rel
Hum
%
Delta-T
°C
Wind Press
QNH
hPa
Press
MSL
hPa
Rain since
9am
mm
Dir  Spd
km/h
Gust
km/h
Spd
kts
Gust
kts
08/11:30pm -8.8 -18.1 -12.6 74 - NE 32 39 17 21 977.6 977.9 -
08/11:25pm -8.8 -18.1 -12.4 75 - NE 32 39 17 21 977.6 977.9 -
08/11:13pm -8.8 -18.1 -12.7 73 - NE 32 39 17 21 977.6 977.9 -
08/11:00pm -9.1 -16.9 -13.2 72 - ENE 24 32 13 17 977.7 978.0 -
08/10:30pm -8.9 -17.8 -12.8 73 - NE 30 39 16 21 977.5 977.8 -
08/10:00pm -8.9 -16.7 -12.8 73 - NE 24 32 13 17 977.4 977.7 -
08/09:30pm -8.8 -17.4 -12.9 72 - ENE 28 35 15 19 977.2 977.5 -
08/09:00pm -8.9 -18.2 -12.5 75 - NE 32 41 17 22 976.9 977.2 -
08/08:30pm -8.8 -18.7 -12.4 75 - NE 35 44 19 24 976.8 977.1 -
08/08:11pm -8.8 -19.0 -12.1 77 - NE 37 46 20 25 976.5 976.8 -
08/08:09pm -8.7 -18.9 -12.0 77 - NE 37 48 20 26 976.5 976.8 -
08/08:00pm -8.7 -18.6 -12.1 76 - NE 35 48 19 26 976.4 976.7 -
08/07:30pm -8.7 -17.6 -12.0 77 - NE 30 41 16 22 976.5 976.8 -
08/07:29pm -8.8 -17.7 -12.1 77 - NE 30 41 16 22 976.4 976.7 -
08/07:20pm -9.0 -17.5 -12.0 79 - NE 28 39 15 21 976.5 976.8 -
08/07:00pm -8.7 -17.6 -12.0 77 - NE 30 43 16 23 976.4 976.7 -
08/06:41pm -8.8 -17.0 -12.4 75 - NE 26 39 14 21 976.5 976.8 -
08/06:30pm -9.0 -16.8 -12.3 77 - NE 24 30 13 16 976.5 976.8 -
08/06:00pm -8.9 -18.4 -12.5 75 - NE 33 46 18 25 976.2 976.5 -
08/05:30pm -9.0 -17.9 -12.8 74 - NE 30 43 16 23 976.1 976.4 -
08/05:00pm -9.1 -17.7 -13.5 70 - ENE 28 39 15 21 976.0 976.3 -
08/04:38pm -9.4 -18.0 -12.8 76 - ENE 28 35 15 19 976.0 976.3 -
08/04:30pm -9.5 -19.0 -12.8 77 - NE 33 46 18 25 975.9 976.2 -
08/04:00pm -9.2 -19.5 -12.6 76 - NE 37 48 20 26 975.8 976.1 -
08/03:43pm -9.1 -17.3 -13.2 72 - NE 26 44 14 24 975.9 976.2 -
08/03:30pm -9.6 -15.8 -14.0 70 - ENE 15 20 8 11 976.1 976.4 -
08/03:00pm -9.8 -16.3 -14.0 71 - ENE 17 24 9 13 976.1 976.4 -
08/02:30pm -9.3 -16.4 -13.9 69 - ENE 20 28 11 15 975.9 976.2 -
08/02:00pm -9.4 -16.5 -13.3 73 - ENE 20 28 11 15 975.9 976.2 -
08/01:30pm -9.4 -17.6 -13.2 74 - NE 26 37 14 20 975.7 976.0 -
08/01:00pm -9.6 -16.7 -13.7 72 - ENE 20 26 11 14 975.9 976.2 -
08/12:30pm -9.7 -16.8 -13.4 74 - NE 20 26 11 14 975.9 976.2 -
08/12:00pm -9.8 -16.7 -13.9 72 - ENE 19 24 10 13 975.9 976.2 -
08/11:30am -9.9 -16.4 -14.0 72 - NE 17 24 9 13 975.8 976.1 -
08/11:00am -9.8 -16.4 -14.2 70 - ENE 17 24 9 13 975.8 976.1 -
08/10:54am -9.5 -16.4 -14.3 68 - ENE 19 30 10 16 975.8 976.1 -
08/10:42am -9.7 -15.9 -14.5 68 - E 15 26 8 14 975.8 976.1 -
08/10:30am -10.6 -16.0 -14.8 71 - SE 11 15 6 8 975.9 976.2 -
08/10:00am -10.1 -15.9 -14.2 72 - ENE 13 19 7 10 975.9 976.2 -
08/09:35am -10.6 -15.3 -14.2 75 - ENE 7 11 4 6 976.0 976.3 -
08/09:30am -10.6 -15.6 -14.3 74 - NE 9 11 5 6 975.9 976.2 -
08/09:00am -10.3 -16.5 -14.4 72 - NE 15 20 8 11 976.0 976.3 -
08/08:39am -11.0 -16.5 -15.4 70 - ESE 11 15 6 8 976.2 976.5 -
08/08:34am -11.1 -16.6 -15.6 69 - SE 11 13 6 7 976.2 976.5 -
08/08:30am -11.2 -16.7 -15.6 70 - SE 11 13 6 7 976.2 976.5 -
08/08:07am -10.7 -16.2 -15.4 68 - ESE 11 15 6 8 976.2 976.5 -
08/08:00am -11.0 -16.5 -15.5 69 - ESE 11 13 6 7 976.2 976.5 -
08/07:30am -11.5 -17.4 -15.9 70 - SE 13 17 7 9 976.1 976.4 -
08/07:19am -11.5 -17.4 -16.0 69 - SE 13 15 7 8 976.2 976.5 -
08/07:00am -11.4 -16.9 -15.6 71 - SE 11 15 6 8 976.3 976.6 -
08/06:52am -11.4 -16.9 -15.8 70 - SE 11 15 6 8 976.3 976.6 -
08/06:42am -11.4 -16.9 -15.6 71 - SE 11 17 6 9 976.3 976.6 -
08/06:30am -11.5 -17.0 -15.2 74 - SSE 11 15 6 8 976.3 976.6 -
08/06:00am -11.6 -17.1 -15.4 73 - SE 11 13 6 7 976.7 977.0 -
08/05:45am -11.7 -17.2 -16.4 68 - SE 11 15 6 8 977.0 977.3 -
08/05:30am -11.3 -16.8 -16.7 64 - SE 11 15 6 8 977.0 977.3 -
08/05:00am -11.3 -17.2 -16.9 63 - ESE 13 15 7 8 977.3 977.6 -
08/04:30am -11.2 -17.1 -17.0 62 - ESE 13 15 7 8 977.5 977.8 -
08/04:00am -11.3 -17.3 -17.5 60 - ESE 13 17 7 9 977.9 978.2 -
08/03:30am -11.5 -17.4 -17.3 62 - SE 13 17 7 9 978.0 978.3 -
08/03:00am -11.8 -17.8 -17.4 63 - SE 13 17 7 9 978.3 978.6 -
08/02:30am -12.1 -18.1 -17.7 63 - SE 13 17 7 9 978.6 978.9 -
08/02:00am -12.5 -18.1 -17.3 67 - SSE 11 15 6 8 978.9 979.2 -
08/01:40am -12.4 -18.3 -17.2 67 - SE 13 17 7 9 978.9 979.2 -
08/01:30am -12.5 -18.4 -17.3 67 - SE 13 17 7 9 979.0 979.3 -
08/01:00am -13.3 -19.7 -18.3 66 - SE 15 19 8 10 979.2 979.5 -
08/12:58am -13.3 -19.7 -18.3 66 - SE 15 19 8 10 979.2 979.5 -
08/12:30am -13.4 -19.4 -18.5 65 - SE 13 17 7 9 979.4 979.7 -
08/12:00am -13.4 -19.8 -19.3 61 - SE 15 19 8 10 979.6 979.9 -
 
Date/Time
EST
Temp
°C
App
Temp
°C
Dew
Point
°C
Rel
Hum
%
Delta-T
°C
Wind Press
QNH
hPa
Press
MSL
hPa
Rain since
9am
mm
Dir  Spd
km/h
Gust
km/h
Spd
kts
Gust
kts
07/11:30pm -14.0 -20.8 -19.3 64 - SE 17 20 9 11 979.8 980.1 -
07/11:00pm -14.3 -20.3 -18.7 69 - ESE 13 17 7 9 980.1 980.4 -
07/10:30pm -14.3 -20.7 -19.4 65 - ESE 15 20 8 11 980.3 980.6 -
07/10:00pm -14.7 -20.8 -20.3 62 - ESE 13 15 7 8 980.5 980.8 -
07/09:30pm -15.0 -21.5 -21.2 59 - ESE 15 19 8 10 980.5 980.8 -
07/09:00pm -15.3 -21.8 -22.1 56 - ESE 15 17 8 9 980.5 980.8 -
07/08:30pm -15.4 -21.9 -22.0 57 - E 15 19 8 10 980.7 981.0 -
07/08:00pm -15.4 -22.3 -22.2 56 - ESE 17 19 9 10 980.8 981.1 -
07/07:30pm -15.1 -22.0 -22.7 52 - ESE 17 19 9 10 981.0 981.3 -
07/07:00pm -15.4 -21.9 -23.0 52 - ESE 15 15 8 8 981.1 981.4 -
07/06:30pm -16.2 -22.4 -23.7 52 - ESE 13 17 7 9 981.2 981.5 -
07/06:00pm -15.8 -22.4 -24.5 47 - ESE 15 17 8 9 981.4 981.7 -
07/05:30pm -17.1 -23.7 -25.7 47 - ESE 15 17 8 9 981.6 981.9 -
07/05:00pm -18.1 -24.7 -27.1 45 - ESE 15 17 8 9 981.7 982.0 -
07/04:30pm -18.7 -25.3 -27.4 46 - ESE 15 17 8 9 982.0 982.3 -
07/04:00pm -18.9 -25.9 -27.6 46 - ESE 17 19 9 10 982.0 982.3 -
07/03:30pm -19.0 -25.6 -28.1 44 - ESE 15 19 8 10 982.1 982.4 -
07/03:00pm -19.0 -26.0 -27.7 46 - ESE 17 19 9 10 982.3 982.6 -
07/02:30pm -19.1 -25.4 -28.2 44 - ESE 13 19 7 10 982.4 982.7 -
07/02:00pm -19.3 -25.6 -28.4 44 - ESE 13 17 7 9 982.5 982.8 -
07/01:30pm -20.2 -26.5 -28.3 48 - ESE 13 17 7 9 982.6 982.9 -
07/01:00pm -19.9 -26.2 -28.5 46 - ESE 13 15 7 8 982.8 983.1 -
07/12:30pm -20.0 -26.7 -28.4 47 - ESE 15 19 8 10 983.0 983.3 -
07/12:00pm -19.7 -26.4 -28.3 46 - ESE 15 20 8 11 983.2 983.5 -
07/11:30am -19.8 -26.8 -28.2 47 - SE 17 20 9 11 983.3 983.6 -
07/11:00am -19.0 -25.7 -28.4 43 - ESE 15 17 8 9 983.6 983.9 -
07/10:30am -19.8 -26.8 -28.4 46 - ESE 17 20 9 11 983.9 984.2 -
07/10:00am -20.2 -26.5 -28.3 48 - ESE 13 19 7 10 984.0 984.3 -
07/09:30am -20.0 -27.4 -28.6 46 - ESE 19 20 10 11 984.2 984.5 -
07/09:00am -20.5 -27.5 -29.1 46 - ESE 17 19 9 10 984.4 984.7 -
07/08:30am -20.0 -27.4 -28.6 46 - ESE 19 24 10 13 984.7 985.0 -
07/08:00am -20.3 -27.3 -28.9 46 - ESE 17 20 9 11 984.9 985.2 -
07/07:30am -20.4 -27.4 -28.7 47 - ESE 17 20 9 11 985.0 985.3 -
07/07:00am -20.2 -27.6 -29.0 45 - ESE 19 26 10 14 985.2 985.5 -
07/06:30am -20.9 -28.0 -29.4 46 - ESE 17 20 9 11 985.3 985.6 -
07/06:00am -21.2 -28.3 -29.3 48 - ESE 17 20 9 11 985.5 985.8 -
07/05:30am -21.0 -28.0 -29.1 48 - ESE 17 19 9 10 985.7 986.0 -
07/05:00am -20.9 -27.9 -29.0 48 - ESE 17 20 9 11 985.8 986.1 -
07/04:30am -20.8 -27.8 -29.1 47 - ESE 17 20 9 11 986.1 986.4 -
07/04:00am -21.3 -28.7 -28.9 50 - SE 19 20 10 11 986.4 986.7 -
07/03:30am -21.4 -28.4 -29.0 50 - ESE 17 20 9 11 986.6 986.9 -
07/03:00am -21.3 -28.7 -28.9 50 - SE 19 22 10 12 986.8 987.1 -
07/02:30am -21.3 -28.3 -29.1 49 - ESE 17 20 9 11 987.1 987.4 -
07/02:00am -21.2 -28.8 -29.3 48 - ESE 20 26 11 14 987.4 987.7 -
07/01:30am -21.1 -28.7 -28.7 50 - SE 20 24 11 13 987.6 987.9 -
07/01:00am -21.6 -28.6 -29.0 51 - ESE 17 20 9 11 987.8 988.1 -
07/12:30am -21.3 -28.7 -29.1 49 - SE 19 20 10 11 987.9 988.2 -
07/12:00am -21.4 -28.1 -29.2 49 - SE 15 20 8 11 988.2 988.5 -

Other formats

Comma delimited format used in spreadsheet applications
http://www.bom.gov.au/fwo/IDT60803/IDT60803.89571.axf

JavaScript Object Notation format (JSON) in row-major order
http://www.bom.gov.au/fwo/IDT60803/IDT60803.89571.json

Data quality

Most of these data are generated automatically and are frequently updated. Quality checks on data are not normally performed. It is possible for incorrect values to appear. Refer to information at About Latest Weather Observations and please check the disclaimer before using these data.